Wetterdaten: Donnerstag, 28.11.2013
Datum Zeit Temperatur Luftfeuchte Luftdruck Regen Wind Richtung Richtung Taupunkt Windchill Windben
28.11.2013 00:00 -13,2 C 79 % 1029,4 hPa 0,0 l/m 0,5 km/h (0 Bft) N 360 -16,0 C -13,0 C 0,0 km/h (0 Bft)
28.11.2013 00:05 -13,4 C 79 % 1029,4 hPa 0,0 l/m 0,0 km/h (0 Bft) N 360 -16,2 C -13,0 C 0,0 km/h (0 Bft)
28.11.2013 00:10 -13,7 C 79 % 1029,4 hPa 0,0 l/m 0,0 km/h (0 Bft) N 360 -16,5 C -13,2 C 0,0 km/h (0 Bft)
28.11.2013 00:15 -14,0 C 79 % 1029,4 hPa 0,0 l/m 0,0 km/h (0 Bft) N 360 -16,8 C -13,3 C 0,0 km/h (0 Bft)
28.11.2013 00:20 -14,0 C 79 % 1029,4 hPa 0,0 l/m 0,0 km/h (0 Bft) N 360 -16,8 C -13,4 C 0,0 km/h (0 Bft)
28.11.2013 00:24 -14,0 C 79 % 1029,4 hPa 0,0 l/m 0,0 km/h (0 Bft) N 360 -16,8 C -13,4 C 0,0 km/h (0 Bft)
28.11.2013 00:25 -14,0 C 79 % 1029,4 hPa 0,0 l/m 0,0 km/h (0 Bft) N 360 -16,8 C -13,4 C 0,0 km/h (0 Bft)
28.11.2013 00:30 -13,8 C 79 % 1029,4 hPa 0,0 l/m 0,0 km/h (0 Bft) N 360 -16,6 C -13,5 C 0,0 km/h (0 Bft)
28.11.2013 00:35 -13,6 C 79 % 1029,4 hPa 0,0 l/m 0,0 km/h (0 Bft) N 360 -16,4 C -13,5 C 0,0 km/h (0 Bft)
28.11.2013 00:40 -13,4 C 79 % 1029,4 hPa 0,0 l/m 0,0 km/h (0 Bft) N 360 -16,2 C -13,7 C 0,0 km/h (0 Bft)
28.11.2013 00:45 -13,6 C 79 % 1029,3 hPa 0,0 l/m 0,2 km/h (0 Bft) N-NO 22 -16,4 C -13,8 C 1,8 km/h (1 Bft)
28.11.2013 00:50 -13,6 C 79 % 1029,3 hPa 0,0 l/m 0,2 km/h (0 Bft) N-NO 22 -16,4 C -13,8 C 0,0 km/h (0 Bft)
28.11.2013 00:55 -13,1 C 79 % 1029,3 hPa 0,0 l/m 0,0 km/h (0 Bft) N-NO 22 -16,0 C -13,8 C 0,0 km/h (0 Bft)
28.11.2013 01:00 -13,6 C 79 % 1029,3 hPa 0,0 l/m 0,0 km/h (0 Bft) N-NO 22 -16,4 C -13,8 C 0,0 km/h (0 Bft)
28.11.2013 01:05 -13,9 C 79 % 1029,5 hPa 0,0 l/m 0,0 km/h (0 Bft) N-NO 22 -16,7 C -13,8 C 0,0 km/h (0 Bft)
28.11.2013 01:10 -13,7 C 79 % 1029,5 hPa 0,0 l/m 0,0 km/h (0 Bft) N-NO 22 -16,5 C -13,7 C 0,0 km/h (0 Bft)
28.11.2013 01:15 -13,8 C 79 % 1029,5 hPa 0,0 l/m 0,0 km/h (0 Bft) NO 45 -16,6 C -13,8 C 0,0 km/h (0 Bft)
28.11.2013 01:20 -12,8 C 80 % 1029,5 hPa 0,0 l/m 0,2 km/h (0 Bft) N 360 -15,5 C -13,7 C 0,0 km/h (0 Bft)
28.11.2013 01:25 -13,6 C 79 % 1029,6 hPa 0,0 l/m 0,2 km/h (0 Bft) N 360 -16,4 C -13,7 C 2,1 km/h (1 Bft)
28.11.2013 01:30 -13,9 C 79 % 1029,6 hPa 0,0 l/m 0,0 km/h (0 Bft) N 360 -16,7 C -13,7 C 0,0 km/h (0 Bft)
28.11.2013 01:35 -13,7 C 79 % 1029,6 hPa 0,0 l/m 0,0 km/h (0 Bft) N 360 -16,5 C -13,5 C 0,0 km/h (0 Bft)
28.11.2013 01:40 -13,4 C 79 % 1029,6 hPa 0,0 l/m 0,0 km/h (0 Bft) N 360 -16,2 C -13,4 C 0,0 km/h (0 Bft)
28.11.2013 01:45 -13,5 C 79 % 1029,5 hPa 0,0 l/m 0,0 km/h (0 Bft) N 360 -16,3 C -13,2 C 0,0 km/h (0 Bft)
28.11.2013 01:50 -13,5 C 79 % 1029,5 hPa 0,0 l/m 0,0 km/h (0 Bft) NO 45 -16,3 C -13,2 C 0,0 km/h (0 Bft)
28.11.2013 01:55 -13,2 C 79 % 1029,5 hPa 0,0 l/m 0,0 km/h (0 Bft) N 360 -16,0 C -12,8 C 0,0 km/h (0 Bft)
28.11.2013 02:00 -13,4 C 79 % 1029,5 hPa 0,0 l/m 0,0 km/h (0 Bft) N 360 -16,2 C -12,8 C 0,0 km/h (0 Bft)
28.11.2013 02:05 -13,5 C 79 % 1029,1 hPa 0,0 l/m 0,0 km/h (0 Bft) N 360 -16,3 C -12,9 C 0,0 km/h (0 Bft)
28.11.2013 02:10 -13,6 C 79 % 1029,1 hPa 0,0 l/m 0,0 km/h (0 Bft) N 360 -16,4 C -13,0 C 0,0 km/h (0 Bft)
28.11.2013 02:15 -13,9 C 79 % 1029,1 hPa 0,0 l/m 0,0 km/h (0 Bft) N 360 -16,7 C -13,2 C 0,0 km/h (0 Bft)
28.11.2013 02:20 -14,0 C 79 % 1029,1 hPa 0,0 l/m 0,0 km/h (0 Bft) N 360 -16,8 C -13,4 C 0,0 km/h (0 Bft)
28.11.2013 02:25 -14,2 C 79 % 1029,1 hPa 0,0 l/m 0,0 km/h (0 Bft) N 360 -17,0 C -13,7 C 0,0 km/h (0 Bft)
28.11.2013 02:30 -14,2 C 79 % 1029,1 hPa 0,0 l/m 0,0 km/h (0 Bft) N 360 -17,0 C -13,8 C 0,0 km/h (0 Bft)
28.11.2013 02:35 -14,2 C 78 % 1029,1 hPa 0,0 l/m 0,0 km/h (0 Bft) N 360 -17,2 C -14,1 C 0,0 km/h (0 Bft)
28.11.2013 02:40 -14,5 C 78 % 1029,1 hPa 0,0 l/m 0,0 km/h (0 Bft) N 360 -17,5 C -14,1 C 0,0 km/h (0 Bft)
28.11.2013 02:45 -14,3 C 78 % 1029,1 hPa 0,0 l/m 0,0 km/h (0 Bft) N-NO 22 -17,3 C -14,1 C 0,0 km/h (0 Bft)
28.11.2013 02:50 -13,8 C 79 % 1029,1 hPa 0,0 l/m 0,3 km/h (0 Bft) O-NO 67 -16,6 C -14,1 C 0,0 km/h (0 Bft)
28.11.2013 02:55 -14,1 C 78 % 1029,1 hPa 0,0 l/m 0,3 km/h (0 Bft) NO 45 -17,1 C -13,8 C 3,1 km/h (1 Bft)
28.11.2013 03:00 -14,4 C 78 % 1029,1 hPa 0,0 l/m 0,0 km/h (0 Bft) N 360 -17,4 C -13,9 C 0,0 km/h (0 Bft)
28.11.2013 03:05 -14,5 C 78 % 1029,2 hPa 0,0 l/m 0,0 km/h (0 Bft) N-NO 22 -17,5 C -14,0 C 0,0 km/h (0 Bft)
28.11.2013 03:10 -14,6 C 78 % 1029,2 hPa 0,0 l/m 0,0 km/h (0 Bft) N-NO 22 -17,6 C -14,2 C 0,0 km/h (0 Bft)
28.11.2013 03:15 -14,8 C 78 % 1029,2 hPa 0,0 l/m 0,0 km/h (0 Bft) N 360 -17,8 C -14,2 C 0,0 km/h (0 Bft)
28.11.2013 03:20 -14,3 C 78 % 1029,2 hPa 0,0 l/m 0,5 km/h (0 Bft) O-NO 67 -17,3 C -14,3 C 3,5 km/h (1 Bft)
28.11.2013 03:25 -14,5 C 78 % 1028,9 hPa 0,0 l/m 0,5 km/h (0 Bft) NO 45 -17,5 C -14,2 C 0,0 km/h (0 Bft)
28.11.2013 03:30 -14,4 C 78 % 1028,9 hPa 0,0 l/m 0,3 km/h (0 Bft) NO 45 -17,4 C -14,3 C 0,0 km/h (0 Bft)
28.11.2013 03:35 -14,7 C 78 % 1028,9 hPa 0,0 l/m 0,0 km/h (0 Bft) O-NO 67 -17,7 C -14,3 C 0,0 km/h (0 Bft)
28.11.2013 03:40 -14,6 C 78 % 1028,9 hPa 0,0 l/m 0,0 km/h (0 Bft) NO 45 -17,6 C -14,4 C 0,0 km/h (0 Bft)
28.11.2013 03:45 -14,6 C 78 % 1028,9 hPa 0,0 l/m 0,0 km/h (0 Bft) N 360 -17,6 C -14,4 C 0,0 km/h (0 Bft)
28.11.2013 03:50 -14,7 C 78 % 1028,9 hPa 0,0 l/m 0,0 km/h (0 Bft) NO 45 -17,7 C -14,6 C 2,3 km/h (1 Bft)
28.11.2013 03:55 -13,7 C 78 % 1028,9 hPa 0,0 l/m 1,4 km/h (1 Bft) O 90 -16,7 C -14,2 C 4,5 km/h (1 Bft)
28.11.2013 04:00 -13,0 C 79 % 1028,9 hPa 0,0 l/m 2,9 km/h (1 Bft) O-NO 67 -15,9 C -15,4 C 3,7 km/h (1 Bft)
28.11.2013 04:05 -13,9 C 79 % 1029,1 hPa 0,0 l/m 1,8 km/h (1 Bft) N-NW 337 -16,7 C -13,5 C 5,8 km/h (2 Bft)
28.11.2013 04:10 -14,4 C 79 % 1029,1 hPa 0,0 l/m 0,8 km/h (0 Bft) N 360 -17,2 C -13,7 C 0,0 km/h (0 Bft)
28.11.2013 04:15 -14,6 C 78 % 1029,1 hPa 0,0 l/m 0,2 km/h (0 Bft) NO 45 -17,6 C -13,8 C 1,8 km/h (1 Bft)
28.11.2013 04:20 -14,0 C 79 % 1029,1 hPa 0,0 l/m 0,3 km/h (0 Bft) O-NO 67 -16,8 C -13,8 C 0,0 km/h (0 Bft)
28.11.2013 04:25 -13,7 C 79 % 1029,3 hPa 0,0 l/m 0,3 km/h (0 Bft) NO 45 -16,5 C -13,7 C 0,0 km/h (0 Bft)
28.11.2013 04:30 -13,4 C 79 % 1029,3 hPa 0,0 l/m 0,2 km/h (0 Bft) N-NO 22 -16,2 C -13,5 C 0,0 km/h (0 Bft)
28.11.2013 04:35 -13,5 C 79 % 1029,3 hPa 0,0 l/m 0,2 km/h (0 Bft) O-NO 67 -16,3 C -13,5 C 2,4 km/h (1 Bft)
28.11.2013 04:40 -12,4 C 79 % 1029,3 hPa 0,0 l/m 1,1 km/h (1 Bft) O-NO 67 -15,3 C -13,3 C 4,3 km/h (1 Bft)
28.11.2013 04:45 -11,9 C 81 % 1029,1 hPa 0,0 l/m 2,4 km/h (1 Bft) O-SO 112 -14,5 C -13,5 C 0,0 km/h (0 Bft)
28.11.2013 04:50 -13,1 C 80 % 1029,1 hPa 0,0 l/m 1,8 km/h (1 Bft) N-NO 22 -15,8 C -12,6 C 0,0 km/h (0 Bft)
28.11.2013 04:55 -13,5 C 79 % 1029,1 hPa 0,0 l/m 0,0 km/h (0 Bft) N-NO 22 -16,3 C -12,9 C 0,0 km/h (0 Bft)
28.11.2013 05:00 -13,6 C 79 % 1029,1 hPa 0,0 l/m 0,0 km/h (0 Bft) N-NO 22 -16,4 C -13,2 C 1,6 km/h (1 Bft)
28.11.2013 05:05 -13,8 C 79 % 1028,9 hPa 0,0 l/m 0,0 km/h (0 Bft) N-NO 22 -16,6 C -13,3 C 0,0 km/h (0 Bft)
28.11.2013 05:10 -13,6 C 79 % 1028,9 hPa 0,0 l/m 0,0 km/h (0 Bft) N-NO 22 -16,4 C -13,3 C 0,0 km/h (0 Bft)
28.11.2013 05:15 -13,6 C 79 % 1028,9 hPa 0,0 l/m 0,0 km/h (0 Bft) N-NO 22 -16,4 C -13,3 C 0,0 km/h (0 Bft)
28.11.2013 05:20 -14,0 C 79 % 1028,9 hPa 0,0 l/m 0,0 km/h (0 Bft) N-NO 22 -16,8 C -13,4 C 0,0 km/h (0 Bft)
28.11.2013 05:24 -13,8 C 79 % 1029,0 hPa 0,0 l/m 0,2 km/h (0 Bft) NO 45 -16,6 C -13,5 C 2,1 km/h (1 Bft)
28.11.2013 05:25 -13,8 C 79 % 1029,0 hPa 0,0 l/m 0,2 km/h (0 Bft) NO 45 -16,6 C -13,5 C 2,1 km/h (1 Bft)
28.11.2013 05:30 -13,6 C 79 % 1029,0 hPa 0,0 l/m 0,2 km/h (0 Bft) N-NO 22 -16,4 C -13,4 C 0,0 km/h (0 Bft)
28.11.2013 05:35 -14,1 C 79 % 1029,0 hPa 0,0 l/m 0,2 km/h (0 Bft) N-NO 22 -16,9 C -13,4 C 0,0 km/h (0 Bft)
28.11.2013 05:40 -14,2 C 78 % 1029,0 hPa 0,0 l/m 0,0 km/h (0 Bft) N-NO 22 -17,2 C -13,5 C 0,0 km/h (0 Bft)
28.11.2013 05:45 -14,0 C 78 % 1029,0 hPa 0,0 l/m 0,0 km/h (0 Bft) N-NO 22 -17,0 C -13,7 C 0,0 km/h (0 Bft)
28.11.2013 05:50 -14,1 C 78 % 1029,0 hPa 0,0 l/m 0,2 km/h (0 Bft) NO 45 -17,1 C -13,5 C 0,0 km/h (0 Bft)
28.11.2013 05:55 -13,9 C 78 % 1029,0 hPa 0,0 l/m 0,2 km/h (0 Bft) NO 45 -16,9 C -13,5 C 0,0 km/h (0 Bft)
28.11.2013 06:00 -13,4 C 79 % 1029,0 hPa 0,0 l/m 0,0 km/h (0 Bft) NO 45 -16,2 C -13,5 C 0,0 km/h (0 Bft)
28.11.2013 06:05 -13,5 C 79 % 1028,6 hPa 0,0 l/m 0,0 km/h (0 Bft) N-NO 22 -16,3 C -13,3 C 0,0 km/h (0 Bft)
28.11.2013 06:10 -13,5 C 79 % 1028,6 hPa 0,0 l/m 0,0 km/h (0 Bft) N-NO 22 -16,3 C -13,2 C 0,0 km/h (0 Bft)
28.11.2013 06:15 -13,5 C 79 % 1028,6 hPa 0,0 l/m 0,0 km/h (0 Bft) N-NO 22 -16,3 C -13,0 C 0,0 km/h (0 Bft)
28.11.2013 06:20 -12,6 C 79 % 1028,6 hPa 0,0 l/m 1,4 km/h (1 Bft) O 90 -15,5 C -12,9 C 6,8 km/h (2 Bft)
28.11.2013 06:25 -12,7 C 80 % 1028,8 hPa 0,0 l/m 1,8 km/h (1 Bft) S-SO 157 -15,4 C -12,0 C 0,0 km/h (0 Bft)
28.11.2013 06:30 -12,9 C 80 % 1028,8 hPa 0,0 l/m 0,8 km/h (0 Bft) O-SO 112 -15,6 C -12,2 C 0,0 km/h (0 Bft)
28.11.2013 06:35 -12,1 C 81 % 1028,8 hPa 0,0 l/m 0,3 km/h (0 Bft) NO 45 -14,7 C -12,2 C 0,0 km/h (0 Bft)
28.11.2013 06:40 -12,1 C 81 % 1028,8 hPa 0,0 l/m 0,3 km/h (0 Bft) NO 45 -14,7 C -11,8 C 0,0 km/h (0 Bft)
28.11.2013 06:45 -12,0 C 81 % 1029,0 hPa 0,0 l/m 0,0 km/h (0 Bft) NO 45 -14,6 C -11,5 C 0,0 km/h (0 Bft)
28.11.2013 06:50 -11,9 C 81 % 1029,0 hPa 0,0 l/m 0,0 km/h (0 Bft) NO 45 -14,5 C -11,4 C 0,0 km/h (0 Bft)
28.11.2013 06:55 -11,7 C 82 % 1029,0 hPa 0,0 l/m 0,0 km/h (0 Bft) NO 45 -14,1 C -11,3 C 0,0 km/h (0 Bft)
28.11.2013 07:00 -11,7 C 82 % 1029,0 hPa 0,0 l/m 0,0 km/h (0 Bft) NO 45 -14,1 C -11,1 C 0,0 km/h (0 Bft)
28.11.2013 07:05 -11,7 C 82 % 1028,9 hPa 0,0 l/m 0,2 km/h (0 Bft) NO 45 -14,1 C -11,1 C 1,9 km/h (1 Bft)
28.11.2013 07:10 -11,3 C 82 % 1028,9 hPa 0,0 l/m 0,2 km/h (0 Bft) NO 45 -13,7 C -11,0 C 0,0 km/h (0 Bft)
28.11.2013 07:15 -11,4 C 82 % 1028,9 hPa 0,0 l/m 0,2 km/h (0 Bft) NO 45 -13,8 C -10,9 C 0,0 km/h (0 Bft)
28.11.2013 07:20 -11,3 C 82 % 1028,9 hPa 0,0 l/m 0,0 km/h (0 Bft) NO 45 -13,7 C -10,9 C 0,0 km/h (0 Bft)
28.11.2013 07:25 -11,2 C 82 % 1028,8 hPa 0,0 l/m 0,0 km/h (0 Bft) O-SO 112 -13,6 C -10,8 C 0,0 km/h (0 Bft)
28.11.2013 07:30 -11,2 C 82 % 1028,8 hPa 0,0 l/m 0,0 km/h (0 Bft) O-NO 67 -13,6 C -10,8 C 0,0 km/h (0 Bft)
28.11.2013 07:35 -11,2 C 82 % 1028,8 hPa 0,0 l/m 0,0 km/h (0 Bft) NO 45 -13,6 C -10,8 C 0,0 km/h (0 Bft)
28.11.2013 07:40 -11,1 C 83 % 1028,8 hPa 0,0 l/m 0,0 km/h (0 Bft) NO 45 -13,4 C -10,7 C 0,0 km/h (0 Bft)
28.11.2013 07:45 -10,6 C 83 % 1028,5 hPa 0,0 l/m 0,0 km/h (0 Bft) NO 45 -12,9 C -10,3 C 0,0 km/h (0 Bft)
28.11.2013 07:50 -10,2 C 83 % 1028,5 hPa 0,0 l/m 0,0 km/h (0 Bft) NO 45 -12,5 C -10,0 C 0,0 km/h (0 Bft)
28.11.2013 07:55 -9,8 C 84 % 1028,5 hPa 0,0 l/m 0,0 km/h (0 Bft) NO 45 -12,0 C -9,7 C 0,0 km/h (0 Bft)
28.11.2013 08:00 -9,6 C 84 % 1028,5 hPa 0,0 l/m 0,0 km/h (0 Bft) NO 45 -11,8 C -9,5 C 0,0 km/h (0 Bft)
28.11.2013 08:05 -9,3 C 84 % 1028,8 hPa 0,0 l/m 0,0 km/h (0 Bft) NO 45 -11,5 C -9,2 C 0,0 km/h (0 Bft)
28.11.2013 08:10 -9,3 C 85 % 1028,8 hPa 0,0 l/m 0,0 km/h (0 Bft) NO 45 -11,3 C -9,0 C 0,0 km/h (0 Bft)
28.11.2013 08:15 -8,9 C 85 % 1028,8 hPa 0,0 l/m 0,0 km/h (0 Bft) NO 45 -10,9 C -8,8 C 0,0 km/h (0 Bft)
28.11.2013 08:20 -8,7 C 85 % 1028,8 hPa 0,0 l/m 0,0 km/h (0 Bft) NO 45 -10,8 C -8,6 C 0,0 km/h (0 Bft)
28.11.2013 08:25 -8,3 C 86 % 1029,0 hPa 0,0 l/m 1,3 km/h (1 Bft) NO 45 -10,2 C -8,1 C 3,5 km/h (1 Bft)
28.11.2013 08:30 -7,9 C 86 % 1029,0 hPa 0,0 l/m 1,3 km/h (1 Bft) NO 45 -9,8 C -7,9 C 0,0 km/h (0 Bft)
28.11.2013 08:35 -7,9 C 86 % 1029,0 hPa 0,0 l/m 0,3 km/h (0 Bft) N-NO 22 -9,8 C -7,6 C 0,0 km/h (0 Bft)
28.11.2013 08:40 -7,9 C 86 % 1029,0 hPa 0,0 l/m 0,3 km/h (0 Bft) W-SW 247 -9,8 C -7,4 C 2,9 km/h (1 Bft)
28.11.2013 08:45 -7,9 C 86 % 1029,0 hPa 0,0 l/m 0,8 km/h (0 Bft) NO 45 -9,8 C -7,5 C 2,1 km/h (1 Bft)
28.11.2013 08:50 -7,5 C 86 % 1029,0 hPa 0,0 l/m 0,6 km/h (0 Bft) N 360 -9,4 C -7,3 C 0,0 km/h (0 Bft)
28.11.2013 08:55 -7,0 C 87 % 1029,0 hPa 0,0 l/m 0,2 km/h (0 Bft) W-NW 292 -8,8 C -6,9 C 2,3 km/h (1 Bft)
28.11.2013 09:00 -6,9 C 87 % 1029,0 hPa 0,0 l/m 0,5 km/h (0 Bft) W 270 -8,7 C -6,7 C 0,0 km/h (0 Bft)
28.11.2013 09:05 -6,9 C 87 % 1029,1 hPa 0,0 l/m 0,5 km/h (0 Bft) W 270 -8,7 C -6,4 C 0,0 km/h (0 Bft)
28.11.2013 09:10 -6,8 C 87 % 1029,1 hPa 0,0 l/m 0,0 km/h (0 Bft) W-NW 292 -8,6 C -6,3 C 0,0 km/h (0 Bft)
28.11.2013 09:15 -6,4 C 87 % 1029,1 hPa 0,0 l/m 0,0 km/h (0 Bft) W-NW 292 -8,2 C -6,1 C 0,0 km/h (0 Bft)
28.11.2013 09:20 -6,3 C 87 % 1029,1 hPa 0,0 l/m 0,0 km/h (0 Bft) W-NW 292 -8,1 C -5,9 C 0,0 km/h (0 Bft)
28.11.2013 09:25 -5,8 C 88 % 1029,4 hPa 0,0 l/m 0,0 km/h (0 Bft) W-NW 292 -7,5 C -5,6 C 0,0 km/h (0 Bft)
28.11.2013 09:30 -5,6 C 88 % 1029,4 hPa 0,0 l/m 0,0 km/h (0 Bft) W-NW 292 -7,3 C -5,3 C 0,0 km/h (0 Bft)
28.11.2013 09:35 -5,0 C 88 % 1029,4 hPa 0,0 l/m 0,0 km/h (0 Bft) W-NW 292 -6,7 C -5,0 C 0,0 km/h (0 Bft)
28.11.2013 09:40 -4,9 C 88 % 1029,4 hPa 0,0 l/m 0,0 km/h (0 Bft) W-SW 247 -6,6 C -4,8 C 0,0 km/h (0 Bft)
28.11.2013 09:45 -4,8 C 88 % 1029,1 hPa 0,0 l/m 0,6 km/h (0 Bft) O 90 -6,5 C -4,6 C 0,0 km/h (0 Bft)
28.11.2013 09:50 -4,3 C 89 % 1029,1 hPa 0,0 l/m 0,6 km/h (0 Bft) O 90 -5,8 C -4,4 C 0,0 km/h (0 Bft)
28.11.2013 09:55 -4,6 C 89 % 1029,1 hPa 0,0 l/m 0,6 km/h (0 Bft) O-NO 67 -6,1 C -4,2 C 0,0 km/h (0 Bft)
28.11.2013 10:00 -4,8 C 89 % 1029,1 hPa 0,0 l/m 0,6 km/h (0 Bft) NW 315 -6,3 C -4,2 C 2,4 km/h (1 Bft)
28.11.2013 10:05 -4,7 C 88 % 1029,3 hPa 0,0 l/m 0,2 km/h (0 Bft) W-NW 292 -6,4 C -4,2 C 0,0 km/h (0 Bft)
28.11.2013 10:10 -4,7 C 88 % 1029,3 hPa 0,0 l/m 0,5 km/h (0 Bft) N 360 -6,4 C -4,1 C 2,6 km/h (1 Bft)
28.11.2013 10:15 -4,2 C 88 % 1029,3 hPa 0,0 l/m 0,6 km/h (0 Bft) N-NW 337 -5,9 C -3,9 C 0,0 km/h (0 Bft)
28.11.2013 10:19 -3,1 C 89 % 1029,3 hPa 0,0 l/m 0,5 km/h (0 Bft) N-NW 337 -4,6 C -3,5 C 0,0 km/h (0 Bft)
28.11.2013 10:20 -3,1 C 89 % 1029,3 hPa 0,0 l/m 0,5 km/h (0 Bft) N-NW 337 -4,6 C -3,5 C 0,0 km/h (0 Bft)
28.11.2013 10:25 -2,8 C 89 % 1029,3 hPa 0,0 l/m 0,6 km/h (0 Bft) N-NO 22 -4,4 C -2,8 C 2,1 km/h (1 Bft)
28.11.2013 10:30 -2,8 C 89 % 1029,3 hPa 0,0 l/m 0,6 km/h (0 Bft) W-NW 292 -4,4 C -2,5 C 0,0 km/h (0 Bft)
28.11.2013 10:35 -2,3 C 89 % 1029,3 hPa 0,0 l/m 0,2 km/h (0 Bft) W-SW 247 -3,9 C -2,0 C 0,0 km/h (0 Bft)
28.11.2013 10:40 -2,6 C 89 % 1029,3 hPa 0,0 l/m 0,5 km/h (0 Bft) O-SO 112 -4,2 C -2,0 C 4,8 km/h (1 Bft)
28.11.2013 10:45 -2,5 C 89 % 1029,3 hPa 0,0 l/m 1,8 km/h (1 Bft) W-SW 247 -4,1 C -2,2 C 3,4 km/h (1 Bft)
28.11.2013 10:50 -2,5 C 89 % 1029,3 hPa 0,0 l/m 2,1 km/h (1 Bft) W-SW 247 -4,1 C -2,4 C 2,4 km/h (1 Bft)
28.11.2013 10:55 -2,2 C 89 % 1029,3 hPa 0,0 l/m 1,1 km/h (1 Bft) SW 225 -3,8 C -2,3 C 0,0 km/h (0 Bft)
28.11.2013 11:00 -2,4 C 89 % 1029,3 hPa 0,0 l/m 0,5 km/h (0 Bft) W-SW 247 -4,0 C -2,3 C 0,0 km/h (0 Bft)
28.11.2013 11:05 -2,5 C 88 % 1029,3 hPa 0,0 l/m 0,0 km/h (0 Bft) W-SW 247 -4,2 C -2,2 C 0,0 km/h (0 Bft)
28.11.2013 11:10 -2,3 C 88 % 1029,3 hPa 0,0 l/m 0,0 km/h (0 Bft) W-SW 247 -4,0 C -2,1 C 0,0 km/h (0 Bft)
28.11.2013 11:15 -1,5 C 89 % 1029,3 hPa 0,0 l/m 0,0 km/h (0 Bft) W-SW 247 -3,1 C -1,9 C 0,0 km/h (0 Bft)
28.11.2013 11:20 -1,5 C 89 % 1029,3 hPa 0,0 l/m 0,5 km/h (0 Bft) W 270 -3,1 C -1,7 C 2,4 km/h (1 Bft)
28.11.2013 11:25 -1,6 C 89 % 1029,2 hPa 0,0 l/m 0,6 km/h (0 Bft) W 270 -3,2 C -1,7 C 0,0 km/h (0 Bft)
28.11.2013 11:30 -1,6 C 89 % 1029,2 hPa 0,0 l/m 0,6 km/h (0 Bft) W-SW 247 -3,2 C -1,6 C 2,1 km/h (1 Bft)
28.11.2013 11:35 -1,4 C 89 % 1029,2 hPa 0,0 l/m 0,3 km/h (0 Bft) W-SW 247 -3,0 C -1,6 C 0,0 km/h (0 Bft)
28.11.2013 11:40 -1,4 C 89 % 1029,2 hPa 0,0 l/m 0,2 km/h (0 Bft) S-SW 202 -3,0 C -1,5 C 0,0 km/h (0 Bft)
28.11.2013 11:45 -1,7 C 89 % 1029,1 hPa 0,0 l/m 0,2 km/h (0 Bft) S 180 -3,3 C -1,5 C 0,0 km/h (0 Bft)
28.11.2013 11:50 -1,5 C 89 % 1029,1 hPa 0,0 l/m 0,2 km/h (0 Bft) S 180 -3,1 C -1,6 C 0,0 km/h (0 Bft)
28.11.2013 11:55 -1,4 C 89 % 1029,1 hPa 0,0 l/m 0,0 km/h (0 Bft) W-SW 247 -3,0 C -1,4 C 1,9 km/h (1 Bft)
28.11.2013 12:00 -1,6 C 89 % 1029,1 hPa 0,0 l/m 1,1 km/h (1 Bft) W-SW 247 -3,2 C -1,6 C 2,4 km/h (1 Bft)
28.11.2013 12:05 -2,0 C 88 % 1029,0 hPa 0,0 l/m 1,4 km/h (1 Bft) W-SW 247 -3,7 C -1,9 C 0,0 km/h (0 Bft)
28.11.2013 12:10 -1,9 C 88 % 1029,0 hPa 0,0 l/m 0,6 km/h (0 Bft) W-SW 247 -3,6 C -1,6 C 0,0 km/h (0 Bft)
28.11.2013 12:15 -1,8 C 88 % 1029,0 hPa 0,0 l/m 0,0 km/h (0 Bft) W-SW 247 -3,5 C -1,3 C 0,0 km/h (0 Bft)
28.11.2013 12:20 -1,0 C 89 % 1029,0 hPa 0,0 l/m 0,0 km/h (0 Bft) W-SW 247 -2,6 C -1,1 C 0,0 km/h (0 Bft)
28.11.2013 12:25 -1,1 C 88 % 1028,9 hPa 0,0 l/m 0,3 km/h (0 Bft) W-SW 247 -2,8 C -0,8 C 1,9 km/h (1 Bft)
28.11.2013 12:30 -0,9 C 88 % 1028,9 hPa 0,0 l/m 0,3 km/h (0 Bft) W-SW 247 -2,6 C -0,9 C 0,0 km/h (0 Bft)
28.11.2013 12:35 -0,6 C 88 % 1028,9 hPa 0,0 l/m 0,2 km/h (0 Bft) SW 225 -2,3 C -0,8 C 0,0 km/h (0 Bft)
28.11.2013 12:40 -1,0 C 88 % 1028,9 hPa 0,0 l/m 0,0 km/h (0 Bft) W-SW 247 -2,7 C -0,7 C 0,0 km/h (0 Bft)
28.11.2013 12:45 -0,9 C 88 % 1028,9 hPa 0,0 l/m 0,2 km/h (0 Bft) W 270 -2,6 C -0,8 C 0,0 km/h (0 Bft)
28.11.2013 12:50 -1,3 C 88 % 1028,9 hPa 0,0 l/m 0,2 km/h (0 Bft) W 270 -3,0 C -0,7 C 0,0 km/h (0 Bft)
28.11.2013 12:55 -1,5 C 87 % 1028,9 hPa 0,0 l/m 0,0 km/h (0 Bft) W-SW 247 -3,4 C -0,7 C 0,0 km/h (0 Bft)
28.11.2013 13:00 -1,3 C 88 % 1028,9 hPa 0,0 l/m 0,5 km/h (0 Bft) W-SW 247 -3,0 C -0,8 C 1,6 km/h (1 Bft)
28.11.2013 13:05 -1,4 C 87 % 1028,6 hPa 0,0 l/m 1,0 km/h (0 Bft) W-SW 247 -3,3 C -0,9 C 0,0 km/h (0 Bft)
28.11.2013 13:10 -0,9 C 87 % 1028,6 hPa 0,0 l/m 0,6 km/h (0 Bft) S-SW 202 -2,8 C -0,7 C 0,0 km/h (0 Bft)
28.11.2013 13:15 -0,9 C 88 % 1028,6 hPa 0,0 l/m 0,0 km/h (0 Bft) W-SW 247 -2,6 C -0,4 C 0,0 km/h (0 Bft)
28.11.2013 13:20 -0,6 C 88 % 1028,6 hPa 0,0 l/m 0,2 km/h (0 Bft) W-SW 247 -2,3 C -0,3 C 0,0 km/h (0 Bft)
28.11.2013 13:25 -0,8 C 88 % 1028,4 hPa 0,0 l/m 0,2 km/h (0 Bft) S 180 -2,5 C -0,1 C 2,1 km/h (1 Bft)
28.11.2013 13:30 -0,6 C 88 % 1028,4 hPa 0,0 l/m 0,6 km/h (0 Bft) S 180 -2,3 C 0,1 C 1,8 km/h (1 Bft)
28.11.2013 13:35 0,0 C 89 % 1028,4 hPa 0,0 l/m 0,8 km/h (0 Bft) S 180 -1,6 C 0,3 C 2,7 km/h (1 Bft)
28.11.2013 13:40 -0,2 C 88 % 1028,4 hPa 0,0 l/m 1,1 km/h (1 Bft) S-SO 157 -1,9 C 0,5 C 1,8 km/h (1 Bft)
28.11.2013 13:45 0,4 C 88 % 1028,2 hPa 0,0 l/m 1,6 km/h (1 Bft) W-SW 247 -1,3 C 0,7 C 1,9 km/h (1 Bft)
28.11.2013 13:50 -0,1 C 88 % 1028,2 hPa 0,0 l/m 1,3 km/h (1 Bft) W-SW 247 -1,8 C 0,9 C 2,3 km/h (1 Bft)
28.11.2013 13:55 -0,4 C 88 % 1028,2 hPa 0,0 l/m 1,8 km/h (1 Bft) S-SW 202 -2,1 C 0,8 C 2,6 km/h (1 Bft)
28.11.2013 14:00 -0,5 C 88 % 1028,2 hPa 0,0 l/m 1,6 km/h (1 Bft) S-SW 202 -2,2 C 0,6 C 0,0 km/h (0 Bft)
28.11.2013 14:05 -0,2 C 88 % 1028,1 hPa 0,0 l/m 1,6 km/h (1 Bft) S 180 -1,9 C 0,3 C 3,9 km/h (1 Bft)
28.11.2013 14:10 -0,1 C 88 % 1028,1 hPa 0,0 l/m 1,8 km/h (1 Bft) S 180 -1,8 C 0,2 C 0,0 km/h (0 Bft)
28.11.2013 14:15 -0,4 C 88 % 1028,1 hPa 0,0 l/m 1,8 km/h (1 Bft) W-SW 247 -2,1 C 0,0 C 3,2 km/h (1 Bft)
28.11.2013 14:20 -0,5 C 88 % 1028,1 hPa 0,0 l/m 1,9 km/h (1 Bft) W-SW 247 -2,2 C -0,1 C 2,7 km/h (1 Bft)
28.11.2013 14:25 -0,1 C 88 % 1028,1 hPa 0,0 l/m 2,3 km/h (1 Bft) W-SW 247 -1,8 C -0,2 C 3,7 km/h (1 Bft)
28.11.2013 14:30 -0,2 C 88 % 1028,1 hPa 0,0 l/m 2,4 km/h (1 Bft) W-SW 247 -1,9 C -0,2 C 4,5 km/h (1 Bft)
28.11.2013 14:35 -0,8 C 88 % 1028,1 hPa 0,0 l/m 3,5 km/h (1 Bft) S 180 -2,5 C -1,2 C 4,3 km/h (1 Bft)
28.11.2013 14:40 -0,9 C 87 % 1028,1 hPa 0,0 l/m 3,5 km/h (1 Bft) S-SW 202 -2,8 C -1,4 C 4,8 km/h (1 Bft)
28.11.2013 14:45 -0,9 C 87 % 1028,2 hPa 0,0 l/m 2,3 km/h (1 Bft) S 180 -2,8 C -0,8 C 0,0 km/h (0 Bft)
28.11.2013 14:50 -1,0 C 87 % 1028,2 hPa 0,0 l/m 2,1 km/h (1 Bft) S-SW 202 -2,9 C -0,9 C 1,8 km/h (1 Bft)
28.11.2013 14:55 -1,1 C 87 % 1028,2 hPa 0,0 l/m 1,4 km/h (1 Bft) W-SW 247 -3,0 C -0,9 C 0,0 km/h (0 Bft)
28.11.2013 15:00 -1,2 C 86 % 1028,2 hPa 0,0 l/m 0,8 km/h (0 Bft) W-SW 247 -3,2 C -1,0 C 0,0 km/h (0 Bft)
28.11.2013 15:05 -1,3 C 86 % 1028,1 hPa 0,0 l/m 0,5 km/h (0 Bft) S-SW 202 -3,3 C -1,1 C 0,0 km/h (0 Bft)
28.11.2013 15:10 -1,2 C 86 % 1028,1 hPa 0,0 l/m 0,2 km/h (0 Bft) W-SW 247 -3,2 C -1,1 C 0,0 km/h (0 Bft)
28.11.2013 15:15 -1,5 C 86 % 1028,1 hPa 0,0 l/m 0,3 km/h (0 Bft) W-SW 247 -3,5 C -1,2 C 0,0 km/h (0 Bft)
28.11.2013 15:19 -1,4 C 86 % 1028,1 hPa 0,0 l/m 0,3 km/h (0 Bft) W-SW 247 -3,4 C -1,2 C 0,0 km/h (0 Bft)
28.11.2013 15:20 -1,4 C 86 % 1028,1 hPa 0,0 l/m 0,3 km/h (0 Bft) W-SW 247 -3,4 C -1,2 C 0,0 km/h (0 Bft)
28.11.2013 15:25 -1,3 C 86 % 1028,1 hPa 0,0 l/m 0,0 km/h (0 Bft) W-SW 247 -3,3 C -1,2 C 0,0 km/h (0 Bft)
28.11.2013 15:30 -1,4 C 87 % 1028,1 hPa 0,0 l/m 0,0 km/h (0 Bft) W-SW 247 -3,3 C -1,3 C 0,0 km/h (0 Bft)
28.11.2013 15:35 -1,5 C 87 % 1028,1 hPa 0,0 l/m 0,0 km/h (0 Bft) W-SW 247 -3,4 C -1,3 C 1,6 km/h (1 Bft)
28.11.2013 15:40 -1,7 C 87 % 1028,1 hPa 0,0 l/m 0,2 km/h (0 Bft) W-SW 247 -3,6 C -1,4 C 0,0 km/h (0 Bft)
28.11.2013 15:45 -1,6 C 87 % 1028,2 hPa 0,0 l/m 0,8 km/h (0 Bft) S 180 -3,5 C -1,5 C 2,1 km/h (1 Bft)
28.11.2013 15:50 -1,8 C 87 % 1028,2 hPa 0,0 l/m 1,4 km/h (1 Bft) S 180 -3,7 C -1,6 C 1,9 km/h (1 Bft)
28.11.2013 15:55 -1,9 C 87 % 1028,2 hPa 0,0 l/m 1,0 km/h (0 Bft) S 180 -3,8 C -1,6 C 0,0 km/h (0 Bft)
28.11.2013 16:00 -2,0 C 87 % 1028,2 hPa 0,0 l/m 0,8 km/h (0 Bft) S 180 -3,9 C -1,7 C 2,9 km/h (1 Bft)
28.11.2013 16:05 -1,9 C 87 % 1028,1 hPa 0,0 l/m 0,8 km/h (0 Bft) S 180 -3,8 C -1,8 C 0,0 km/h (0 Bft)
28.11.2013 16:10 -2,0 C 87 % 1028,1 hPa 0,0 l/m 0,8 km/h (0 Bft) S 180 -3,9 C -1,8 C 0,0 km/h (0 Bft)
28.11.2013 16:15 -2,1 C 87 % 1028,1 hPa 0,0 l/m 0,3 km/h (0 Bft) S 180 -4,0 C -1,8 C 1,9 km/h (1 Bft)
28.11.2013 16:20 -2,0 C 87 % 1028,1 hPa 0,0 l/m 0,3 km/h (0 Bft) S-SO 157 -3,9 C -1,9 C 1,8 km/h (1 Bft)
28.11.2013 16:25 -2,1 C 88 % 1027,9 hPa 0,0 l/m 0,3 km/h (0 Bft) S-SO 157 -3,8 C -1,9 C 0,0 km/h (0 Bft)
28.11.2013 16:30 -2,1 C 88 % 1027,9 hPa 0,0 l/m 0,0 km/h (0 Bft) S-SO 157 -3,8 C -2,0 C 0,0 km/h (0 Bft)
28.11.2013 16:35 -2,1 C 88 % 1027,9 hPa 0,0 l/m 0,0 km/h (0 Bft) S-SO 157 -3,8 C -2,0 C 0,0 km/h (0 Bft)
28.11.2013 16:40 -2,1 C 88 % 1027,9 hPa 0,0 l/m 0,0 km/h (0 Bft) S-SO 157 -3,8 C -2,0 C 0,0 km/h (0 Bft)
28.11.2013 16:45 -2,1 C 89 % 1027,9 hPa 0,0 l/m 0,0 km/h (0 Bft) S-SO 157 -3,7 C -2,1 C 0,0 km/h (0 Bft)
28.11.2013 16:50 -2,1 C 89 % 1027,9 hPa 0,0 l/m 0,0 km/h (0 Bft) W-SW 247 -3,7 C -2,1 C 2,4 km/h (1 Bft)
28.11.2013 16:55 -2,1 C 89 % 1027,9 hPa 0,0 l/m 0,6 km/h (0 Bft) S 180 -3,7 C -2,1 C 0,0 km/h (0 Bft)
28.11.2013 17:00 -2,1 C 89 % 1027,9 hPa 0,0 l/m 1,1 km/h (1 Bft) S-SO 157 -3,7 C -2,1 C 2,3 km/h (1 Bft)
28.11.2013 17:05 -2,0 C 89 % 1027,8 hPa 0,0 l/m 1,6 km/h (1 Bft) SO 135 -3,6 C -2,0 C 1,6 km/h (1 Bft)
28.11.2013 17:10 -2,0 C 89 % 1027,8 hPa 0,0 l/m 2,7 km/h (1 Bft) O-NO 67 -3,6 C -2,4 C 5,8 km/h (2 Bft)
28.11.2013 17:15 -2,0 C 89 % 1027,8 hPa 0,0 l/m 2,1 km/h (1 Bft) O-SO 112 -3,6 C -1,9 C 7,6 km/h (2 Bft)
28.11.2013 17:20 -2,1 C 89 % 1027,8 hPa 0,0 l/m 0,8 km/h (0 Bft) SO 135 -3,7 C -1,9 C 0,0 km/h (0 Bft)
28.11.2013 17:25 -2,1 C 89 % 1027,6 hPa 0,0 l/m 0,0 km/h (0 Bft) O-SO 112 -3,7 C -1,9 C 0,0 km/h (0 Bft)
28.11.2013 17:30 -2,1 C 89 % 1027,6 hPa 0,0 l/m 0,2 km/h (0 Bft) S-SO 157 -3,7 C -1,9 C 0,0 km/h (0 Bft)
28.11.2013 17:35 -2,0 C 90 % 1027,6 hPa 0,0 l/m 0,6 km/h (0 Bft) S-SO 157 -3,4 C -1,9 C 1,8 km/h (1 Bft)
28.11.2013 17:40 -2,0 C 90 % 1027,6 hPa 0,0 l/m 0,8 km/h (0 Bft) O-SO 112 -3,4 C -1,9 C 0,0 km/h (0 Bft)
28.11.2013 17:45 -2,0 C 90 % 1027,8 hPa 0,0 l/m 0,6 km/h (0 Bft) S-SO 157 -3,4 C -1,9 C 1,6 km/h (1 Bft)
28.11.2013 17:50 -2,0 C 90 % 1027,8 hPa 0,0 l/m 0,2 km/h (0 Bft) S 180 -3,4 C -1,9 C 0,0 km/h (0 Bft)
28.11.2013 17:55 -2,0 C 90 % 1027,8 hPa 0,0 l/m 0,0 km/h (0 Bft) S 180 -3,4 C -1,9 C 0,0 km/h (0 Bft)
28.11.2013 18:00 -2,0 C 90 % 1027,8 hPa 0,0 l/m 0,0 km/h (0 Bft) S-SO 157 -3,4 C -2,0 C 0,0 km/h (0 Bft)
28.11.2013 18:05 -2,0 C 90 % 1028,1 hPa 0,0 l/m 0,0 km/h (0 Bft) S-SO 157 -3,4 C -2,0 C 0,0 km/h (0 Bft)
28.11.2013 18:10 -2,0 C 90 % 1028,1 hPa 0,0 l/m 0,0 km/h (0 Bft) S-SO 157 -3,4 C -2,0 C 0,0 km/h (0 Bft)
28.11.2013 18:15 -2,0 C 90 % 1028,1 hPa 0,0 l/m 0,0 km/h (0 Bft) S 180 -3,4 C -2,0 C 0,0 km/h (0 Bft)
28.11.2013 18:20 -2,0 C 91 % 1028,1 hPa 0,0 l/m 0,0 km/h (0 Bft) S 180 -3,3 C -2,0 C 0,0 km/h (0 Bft)
28.11.2013 18:25 -2,0 C 91 % 1028,2 hPa 0,0 l/m 0,0 km/h (0 Bft) S 180 -3,3 C -2,0 C 0,0 km/h (0 Bft)
28.11.2013 18:30 -2,0 C 91 % 1028,2 hPa 0,0 l/m 0,0 km/h (0 Bft) S 180 -3,3 C -2,0 C 0,0 km/h (0 Bft)
28.11.2013 18:35 -1,9 C 91 % 1028,2 hPa 0,0 l/m 0,0 km/h (0 Bft) S-SO 157 -3,2 C -2,0 C 0,0 km/h (0 Bft)
28.11.2013 18:40 -1,9 C 91 % 1028,2 hPa 0,0 l/m 0,0 km/h (0 Bft) S 180 -3,2 C -2,0 C 0,0 km/h (0 Bft)
28.11.2013 18:45 -2,0 C 91 % 1028,4 hPa 0,0 l/m 0,0 km/h (0 Bft) S 180 -3,3 C -2,0 C 0,0 km/h (0 Bft)
28.11.2013 18:50 -2,0 C 91 % 1028,4 hPa 0,0 l/m 0,0 km/h (0 Bft) S 180 -3,3 C -2,0 C 0,0 km/h (0 Bft)
28.11.2013 18:55 -2,1 C 91 % 1028,4 hPa 0,0 l/m 0,0 km/h (0 Bft) S 180 -3,4 C -2,0 C 0,0 km/h (0 Bft)
28.11.2013 19:00 -2,1 C 91 % 1028,4 hPa 0,0 l/m 0,0 km/h (0 Bft) SO 135 -3,4 C -2,0 C 0,0 km/h (0 Bft)
28.11.2013 19:05 -2,0 C 91 % 1028,3 hPa 0,0 l/m 0,0 km/h (0 Bft) S 180 -3,3 C -2,0 C 0,0 km/h (0 Bft)
28.11.2013 19:10 -2,0 C 91 % 1028,3 hPa 0,0 l/m 0,0 km/h (0 Bft) SO 135 -3,3 C -2,0 C 0,0 km/h (0 Bft)
28.11.2013 19:15 -2,0 C 91 % 1028,3 hPa 0,0 l/m 0,0 km/h (0 Bft) S 180 -3,3 C -2,0 C 0,0 km/h (0 Bft)
28.11.2013 19:20 -2,0 C 91 % 1028,3 hPa 0,0 l/m 0,0 km/h (0 Bft) S 180 -3,3 C -2,0 C 0,0 km/h (0 Bft)
28.11.2013 19:25 -2,1 C 91 % 1028,4 hPa 0,0 l/m 0,0 km/h (0 Bft) S 180 -3,4 C -2,1 C 0,0 km/h (0 Bft)
28.11.2013 19:30 -2,2 C 91 % 1028,4 hPa 0,0 l/m 0,2 km/h (0 Bft) SO 135 -3,5 C -2,1 C 2,3 km/h (1 Bft)
28.11.2013 19:35 -2,4 C 91 % 1028,4 hPa 0,0 l/m 0,5 km/h (0 Bft) S 180 -3,7 C -2,3 C 0,0 km/h (0 Bft)
28.11.2013 19:40 -2,5 C 91 % 1028,4 hPa 0,0 l/m 1,0 km/h (0 Bft) S 180 -3,8 C -2,3 C 2,1 km/h (1 Bft)
28.11.2013 19:45 -2,6 C 91 % 1028,4 hPa 0,0 l/m 0,5 km/h (0 Bft) S 180 -3,9 C -2,4 C 0,0 km/h (0 Bft)
28.11.2013 19:50 -2,6 C 91 % 1028,4 hPa 0,0 l/m 0,0 km/h (0 Bft) O-SO 112 -3,9 C -2,5 C 0,0 km/h (0 Bft)
28.11.2013 19:55 -2,5 C 91 % 1028,4 hPa 0,0 l/m 0,0 km/h (0 Bft) SO 135 -3,8 C -2,5 C 0,0 km/h (0 Bft)
28.11.2013 20:00 -2,5 C 91 % 1028,4 hPa 0,0 l/m 0,0 km/h (0 Bft) SO 135 -3,8 C -2,5 C 0,0 km/h (0 Bft)
28.11.2013 20:05 -2,6 C 91 % 1028,4 hPa 0,0 l/m 0,0 km/h (0 Bft) SO 135 -3,9 C -2,5 C 0,0 km/h (0 Bft)
28.11.2013 20:10 -2,6 C 91 % 1028,4 hPa 0,0 l/m 0,0 km/h (0 Bft) SO 135 -3,9 C -2,5 C 0,0 km/h (0 Bft)
28.11.2013 20:15 -2,6 C 91 % 1028,4 hPa 0,0 l/m 0,2 km/h (0 Bft) S-SO 157 -3,9 C -2,6 C 0,0 km/h (0 Bft)
28.11.2013 20:19 -2,5 C 91 % 1028,4 hPa 0,0 l/m 0,6 km/h (0 Bft) O-SO 112 -3,8 C -2,5 C 3,1 km/h (1 Bft)
28.11.2013 20:20 -2,5 C 91 % 1028,4 hPa 0,0 l/m 0,6 km/h (0 Bft) O-SO 112 -3,8 C -2,5 C 3,1 km/h (1 Bft)
28.11.2013 20:25 -2,5 C 91 % 1028,2 hPa 0,0 l/m 0,6 km/h (0 Bft) O-SO 112 -3,8 C -2,5 C 0,0 km/h (0 Bft)
28.11.2013 20:30 -2,5 C 91 % 1028,2 hPa 0,0 l/m 0,6 km/h (0 Bft) O-SO 112 -3,8 C -2,5 C 1,6 km/h (1 Bft)
28.11.2013 20:35 -2,6 C 91 % 1028,2 hPa 0,0 l/m 0,3 km/h (0 Bft) S 180 -3,9 C -2,6 C 0,0 km/h (0 Bft)
28.11.2013 20:40 -2,8 C 91 % 1028,2 hPa 0,0 l/m 0,2 km/h (0 Bft) S 180 -4,1 C -2,7 C 0,0 km/h (0 Bft)
28.11.2013 20:45 -2,9 C 91 % 1028,5 hPa 0,0 l/m 0,0 km/h (0 Bft) SO 135 -4,2 C -2,9 C 0,0 km/h (0 Bft)
28.11.2013 20:50 -3,0 C 91 % 1028,5 hPa 0,0 l/m 0,0 km/h (0 Bft) SO 135 -4,3 C -3,0 C 0,0 km/h (0 Bft)
28.11.2013 20:55 -3,0 C 91 % 1028,5 hPa 0,0 l/m 0,3 km/h (0 Bft) O-SO 112 -4,3 C -3,1 C 0,0 km/h (0 Bft)
28.11.2013 21:00 -3,0 C 91 % 1028,5 hPa 0,0 l/m 0,5 km/h (0 Bft) O-SO 112 -4,3 C -3,2 C 1,9 km/h (1 Bft)
28.11.2013 21:05 -3,0 C 91 % 1028,5 hPa 0,0 l/m 0,6 km/h (0 Bft) O-SO 112 -4,3 C -3,2 C 0,0 km/h (0 Bft)
28.11.2013 21:10 -3,0 C 91 % 1028,5 hPa 0,0 l/m 0,6 km/h (0 Bft) O 90 -4,3 C -3,1 C 0,0 km/h (0 Bft)
28.11.2013 21:15 -3,0 C 91 % 1028,5 hPa 0,0 l/m 0,0 km/h (0 Bft) O 90 -4,3 C -3,1 C 0,0 km/h (0 Bft)
28.11.2013 21:20 -3,0 C 91 % 1028,5 hPa 0,0 l/m 0,0 km/h (0 Bft) O 90 -4,3 C -3,1 C 0,0 km/h (0 Bft)
28.11.2013 21:25 -3,1 C 91 % 1028,5 hPa 0,0 l/m 0,0 km/h (0 Bft) O 90 -4,4 C -3,1 C 0,0 km/h (0 Bft)
28.11.2013 21:30 -3,2 C 91 % 1028,5 hPa 0,0 l/m 0,0 km/h (0 Bft) O 90 -4,5 C -3,1 C 0,0 km/h (0 Bft)
28.11.2013 21:35 -3,3 C 91 % 1028,5 hPa 0,0 l/m 0,0 km/h (0 Bft) W-SW 247 -4,6 C -3,2 C 0,0 km/h (0 Bft)
28.11.2013 21:40 -3,4 C 91 % 1028,5 hPa 0,0 l/m 0,3 km/h (0 Bft) O-SO 112 -4,7 C -3,3 C 2,1 km/h (1 Bft)
28.11.2013 21:45 -3,5 C 91 % 1028,7 hPa 0,0 l/m 0,3 km/h (0 Bft) O-SO 112 -4,8 C -3,3 C 0,0 km/h (0 Bft)
28.11.2013 21:50 -3,4 C 91 % 1028,7 hPa 0,0 l/m 0,3 km/h (0 Bft) O-SO 112 -4,7 C -3,3 C 1,6 km/h (1 Bft)
28.11.2013 21:55 -3,2 C 91 % 1028,7 hPa 0,0 l/m 0,2 km/h (0 Bft) O-SO 112 -4,5 C -3,2 C 0,0 km/h (0 Bft)
28.11.2013 22:00 -3,1 C 91 % 1028,7 hPa 0,0 l/m 0,0 km/h (0 Bft) O-SO 112 -4,4 C -3,2 C 0,0 km/h (0 Bft)
28.11.2013 22:05 -3,0 C 92 % 1028,5 hPa 0,0 l/m 0,0 km/h (0 Bft) O-SO 112 -4,1 C -3,1 C 0,0 km/h (0 Bft)
28.11.2013 22:10 -3,0 C 92 % 1028,5 hPa 0,0 l/m 0,0 km/h (0 Bft) O-SO 112 -4,1 C -3,0 C 0,0 km/h (0 Bft)
28.11.2013 22:15 -3,0 C 92 % 1028,5 hPa 0,0 l/m 0,0 km/h (0 Bft) O-SO 112 -4,1 C -3,0 C 0,0 km/h (0 Bft)
28.11.2013 22:20 -2,9 C 92 % 1028,5 hPa 0,0 l/m 0,0 km/h (0 Bft) SO 135 -4,0 C -2,9 C 0,0 km/h (0 Bft)
28.11.2013 22:25 -2,8 C 92 % 1028,7 hPa 0,0 l/m 0,0 km/h (0 Bft) O-SO 112 -3,9 C -2,8 C 0,0 km/h (0 Bft)
28.11.2013 22:30 -2,8 C 92 % 1028,7 hPa 0,0 l/m 0,0 km/h (0 Bft) O-SO 112 -3,9 C -2,8 C 0,0 km/h (0 Bft)
28.11.2013 22:35 -2,7 C 92 % 1028,7 hPa 0,0 l/m 0,0 km/h (0 Bft) O-SO 112 -3,8 C -2,8 C 0,0 km/h (0 Bft)
28.11.2013 22:40 -2,8 C 92 % 1028,7 hPa 0,0 l/m 0,0 km/h (0 Bft) O-SO 112 -3,9 C -2,8 C 0,0 km/h (0 Bft)
28.11.2013 22:45 -2,8 C 92 % 1028,7 hPa 0,0 l/m 0,0 km/h (0 Bft) O-SO 112 -3,9 C -2,8 C 0,0 km/h (0 Bft)
28.11.2013 22:50 -2,8 C 92 % 1028,7 hPa 0,0 l/m 0,0 km/h (0 Bft) O-SO 112 -3,9 C -2,8 C 0,0 km/h (0 Bft)
28.11.2013 22:55 -2,6 C 92 % 1028,7 hPa 0,0 l/m 0,0 km/h (0 Bft) O-SO 112 -3,7 C -2,7 C 0,0 km/h (0 Bft)
28.11.2013 23:00 -2,5 C 92 % 1028,7 hPa 0,0 l/m 0,5 km/h (0 Bft) O 90 -3,6 C -2,7 C 0,0 km/h (0 Bft)
28.11.2013 23:05 -2,6 C 92 % 1028,6 hPa 0,0 l/m 0,6 km/h (0 Bft) S-SW 202 -3,7 C -2,6 C 0,0 km/h (0 Bft)
28.11.2013 23:10 -2,7 C 92 % 1028,6 hPa 0,0 l/m 0,3 km/h (0 Bft) S-SW 202 -3,8 C -2,6 C 0,0 km/h (0 Bft)
28.11.2013 23:15 -2,7 C 92 % 1028,6 hPa 0,0 l/m 0,0 km/h (0 Bft) S 180 -3,8 C -2,6 C 0,0 km/h (0 Bft)
28.11.2013 23:20 -2,7 C 92 % 1028,6 hPa 0,0 l/m 0,0 km/h (0 Bft) S 180 -3,8 C -2,6 C 0,0 km/h (0 Bft)
28.11.2013 23:25 -2,7 C 92 % 1028,4 hPa 0,0 l/m 0,0 km/h (0 Bft) S 180 -3,8 C -2,6 C 0,0 km/h (0 Bft)
28.11.2013 23:30 -2,6 C 92 % 1028,4 hPa 0,0 l/m 0,3 km/h (0 Bft) O-SO 112 -3,7 C -2,6 C 0,0 km/h (0 Bft)
28.11.2013 23:35 -2,5 C 92 % 1028,4 hPa 0,0 l/m 0,6 km/h (0 Bft) O-SO 112 -3,6 C -2,5 C 4,3 km/h (1 Bft)
28.11.2013 23:40 -2,5 C 92 % 1028,4 hPa 0,0 l/m 0,6 km/h (0 Bft) O-SO 112 -3,6 C -2,5 C 0,0 km/h (0 Bft)
28.11.2013 23:45 -2,5 C 92 % 1028,6 hPa 0,0 l/m 0,6 km/h (0 Bft) S 180 -3,6 C -2,4 C 3,7 km/h (1 Bft)
28.11.2013 23:50 -2,4 C 92 % 1028,6 hPa 0,0 l/m 1,0 km/h (0 Bft) SO 135 -3,5 C -2,3 C 0,0 km/h (0 Bft)
28.11.2013 23:55 -2,2 C 92 % 1028,6 hPa 0,0 l/m 1,9 km/h (1 Bft) O-SO 112 -3,3 C -2,3 C 6,6 km/h (2 Bft)
_ Min-Zeit 03:15 05:55 17:40 - 23:25 - - 03:15 04:00 23:50
Minimum _ -14,8 C 78 % 1027,6 hPa - 0,0 km/h (0 Bft) - - -17,8 C -15,4 C 0,0 km/h (0 Bft)
_ Max-Zeit 13:45 23:55 01:40 23:55 14:40 - - 13:45 13:50 17:15
Maximum _ 0,4 C 92 % 1029,6 hPa 0,0 l/m 3,5 km/h
S-SW (1 Bft)
- - -1,3 C 0,9 C 7,6 km/h
O-SO (2 Bft)
Durchschnitt _ -6,2 C 86 % 1028,7 hPa #0,0 l/m 0,4 km/h (0 Bft) W-SW - -8,2 C -6,1 C 0,7 km/h (0 Bft)